Regional Weather Roundup
Issued by NWS

Home | Current Version | Previous Version | Graphics & Text | Print | Product List | Glossary On
Versions: 1 2 3 4 5 6 7 8 9 10 11 12 13 14 15 16 17 18 19 20 21 22 23 24 25 26 27 28 29 30 31 32 33 34 35 36 37 38 39 40 41 42 43 44 45 46 47 48 49 50
000
ASUS43 KDTX 011310
RWRMI
MICHIGAN HOURLY REGIONAL WEATHER ROUNDUP
NATIONAL WEATHER SERVICE DETROIT/PONTIAC MI
900 AM EDT SAT AUG 01 2015

NOTE: "FAIR" INDICATES FEW OR NO CLOUDS BELOW 12,000 FEET WITH NO
SIGNIFICANT WEATHER AND/OR OBSTRUCTION TO VISIBILITY.

MIZ047>049-052>055-059>063-066>070-074>076-081>083-011400-
SOUTHEAST LOWER MICHIGAN

CITY           SKY/WX    TMP DP  RH WIND       PRES   REMARKS
ADRIAN         SUNNY     69  60  73 NW6       29.96R
ALMA           SUNNY     67  61  83 W6        29.93R
ANN ARBOR      SUNNY     69  58  67 NW9       29.94R
BAD AXE        SUNNY     67  61  82 SW6       29.90S
CARO           SUNNY     65  59  79 SW3       29.91R
DETROIT CITY   SUNNY     71  55  56 W6        29.93R
DETROIT        MOSUNNY   70  58  65 W6        29.94R
FLINT          SUNNY     70  58  65 W5        29.93R
GROSSE ILE     SUNNY     70  57  64 NW7       29.92S
HILLSDALE      SUNNY     69  60  72 NW9       29.98R
HOWELL         SUNNY     67  59  75 W8        29.94S

CITY           SKY/WX    TMP DP  RH WIND       PRES   REMARKS
JACKSON        SUNNY     67  59  75 W6        29.96S
LAMBERTVILLE   SUNNY     69  59  70 W6        29.95S
LANSING        SUNNY     68  57  68 W8        29.95R
LAPEER         FAIR      67  57  72 W3        29.92S
MASON          SUNNY     64  57  77 W6        29.95S
MONROE         SUNNY     67  60  77 NW3       29.93S
MT. CLEMENS    MOSUNNY   71  57  61 NW6       29.90R
PONTIAC        MOSUNNY   68  57  68 W7        29.93R
PORT HOPE        N/A     68  61  78 VRB6      29.86S
PORT HURON     SUNNY     66  61  82 NW5       29.91S
TRI CITIES     SUNNY     68  57  68 W8        29.91S
MIDLAND        FAIR      67  57  70 W6        29.89S
TROY           SUNNY     71  56  59 NW7       29.94R
SAGINAW HB     SUNNY     70  57  64 W6        29.90S
$$
MIZ043>046-050>051-056>058-064>065-071>073-077>080-011400-
SOUTHWEST LOWER MICHIGAN

CITY           SKY/WX    TMP DP  RH WIND       PRES   REMARKS
BATTLE CREEK   SUNNY     70  61  73 W10       29.97S
BENTON HARBOR  SUNNY     73  61  65 W12       29.97S
BIG RAPIDS     MOSUNNY   68  62  79 W9        29.92R
COLDWATER      SUNNY     68  60  75 W5        29.98R
FREMONT        FAIR      68  61  77 W5        29.93R
HOLLAND        MOSUNNY   72  60  66 W7        29.96R
GRAND RAPIDS   MOSUNNY   71  61  70 W8        29.94S
IONIA          FAIR      69  60  73 W6        29.93S
KALAMAZOO      SUNNY     72  60  66 W8        29.97S
LUDINGTON      SUNNY     71  61  70 W6        29.91S
MARSHALL       SUNNY     69  61  76 W3        29.96S
MOUNT PLEASANT SUNNY     71  59  66 W8        29.91R
MUSKEGON       MOSUNNY   73  58  59 W9        29.94R
SOUTH HAVEN    SUNNY     72  61  67 W5        29.97R
$$
MIZ016>042-011400-
NORTHERN LOWER MICHIGAN

CITY           SKY/WX    TMP DP  RH WIND       PRES   REMARKS
ALPENA         SUNNY     66  59  78 W7        29.86R
BEAVER ISLAND  MOSUNNY   65  58  76 W6        29.86R
BELLAIRE       PTSUNNY   65  61  86 CALM      29.88R
CADILLAC       MOSUNNY   66  58  76 SW5       29.90S
CHARLEVOIX     PTSUNNY   69  60  74 W7        29.89S
FRANKFORT      SUNNY     70  62  77 W7        29.89R
GAYLORD        SUNNY     64  60  87 W7        29.88S
GRAYLING       PTSUNNY   63  58  82 SW6       29.89R
HARBOR SPRINGS MOSUNNY   67  59  75 CALM      29.86S
HOUGHTON LAKE  PTSUNNY   66  58  75 W10       29.90S
MANISTEE       MOSUNNY   64  61  88 W3        29.91R
OSCODA         SUNNY     67  58  72 W7        29.86S
PELLSTON       MOSUNNY   65  59  81 W3        29.86R
ROGERS CITY    SUNNY     67  59  76 W5        29.85S
TRAVERSE CITY  MOSUNNY   70  60  70 W7        29.86R
$$
MIZ007>008-015-011400-
EASTERN UPPER MICHIGAN

CITY           SKY/WX    TMP DP  RH WIND       PRES   REMARKS
KINROSS        MOSUNNY   61  55  82 W9        29.84R
MACKINAC ISLAN MOSUNNY   62  56  80 W5        29.84S
NEWBERRY       MOSUNNY   61  56  84 W8        29.84R
MUNISING         N/A     68  57  68 NW6       29.84S
$$
MIZ004>006-011>014-085-011400-
CENTRAL UPPER MICHIGAN

CITY           SKY/WX    TMP DP  RH WIND       PRES   REMARKS
MANISTIQUE     PTSUNNY   64  55  72 NW9       29.85R
ESCANABA       MOSUNNY   66  55  68 NW10G16   29.85S
MENOMINEE      SUNNY     64  52  63 NW3       29.89R
SAWYER-GWINN   SUNNY     63  54  72 NW10      29.87R
$$
MIZ001>003-009>011-084-011400-
WESTERN UPPER MICHIGAN

CITY           SKY/WX    TMP DP  RH WIND       PRES   REMARKS
IRON MOUNTAIN  SUNNY     63  54  72 NW8       29.88S
HOUGHTON       SUNNY     62  56  80 W14       29.86S
COPPER HARBOR    N/A     67  54  63 N14G22    29.82S
IRONWOOD       SUNNY     61  54  77 W9        29.90S
$$

ABBREVIATIONS USED IN REMARKS
   TC - TEMPERATURE IN CELSIUS
  WCI - WIND CHILL INDEX
   HX - HEAT INDEX
  VSB - VISIBILITY




USA.gov is the U.S. government's official web portal to all federal, state and local government web resources and services.